Weather History for K4A9 - September, 2013

Change the Weather History Date:

Monday, September 30, 2013

  Actual Average (KRMG) Record (KRMG)
Temperature  
Mean Temperature 66 °F 67 °F  
Max Temperature 77 °F 79 °F 87 °F (2005)
Min Temperature 55 °F 55 °F 43 °F (2003)
Degree Days  
Heating Degree Days 0 2  
Month to date heating degree days 13  
Since 1 July heating degree days 14  
Cooling Degree Days 1 4  
Month to date cooling degree days 224  
Year to date cooling degree days 1590  
Growing Degree Days 16 (Base 50)    
Moisture  
Dew Point 54 °F    
Average Humidity 72    
Maximum Humidity 94    
Minimum Humidity 44    
Precipitation  
Precipitation 0.00 in 0.14 in 1.18 in (2012)
Month to date precipitation 3.41  
Year to date precipitation 38.83  
Sea Level Pressure  
Sea Level Pressure 30.05 in    
Wind  
Wind Speed 1 mph (South)    
Max Wind Speed 8 mph    
Max Gust Speed -    
Visibility 10 miles    
Events      
T = Trace of Precipitation, MM = Missing Value Source: NWS Daily Summary

Daily Weather History Graph

Daily Weather History Graph

Search for Another Location

Airport or City:

Trip Planner

Search our weather history database for the weather conditions in past years. The results will help you decide how hot, cold, wet, or windy it might be!

Date:

Astronomy

Sep. 30, 2013 Rise Set
Actual Time 6:36 AM CDT 6:28 PM CDT
Civil Twilight 6:11 AM CDT 6:53 PM CDT
Nautical Twilight 5:42 AM CDT 7:22 PM CDT
Astronomical Twilight 5:13 AM CDT 7:51 PM CDT
Moon 2:22 AM CDT 3:50 PM CDT
Length of Visible Light 12h 41m
Length of Day
11h 51m
Waning Crescent, 19% of the Moon is Illuminated
Sep 30
Waning Crescent
Oct 4
New
Oct 11
First Quarter
Oct 18
Full
Oct 26
Last Quarter

Hourly Weather History & Observations

Time (CDT) Temp. Dew Point Humidity Pressure Visibility Wind Dir Wind Speed Gust Speed Precip Events Conditions
12:15 AM 60.8 °F 57.2 °F 88% 30.05 in 10.0 mi Calm Calm - N/A   Clear
12:35 AM 59.0 °F 55.4 °F 88% 30.04 in 10.0 mi Calm Calm - N/A   Clear
12:55 AM 59.0 °F 55.4 °F 88% 30.04 in 7.0 mi Calm Calm - N/A   Clear
1:15 AM 59.0 °F 55.4 °F 88% 30.04 in 10.0 mi Calm Calm - N/A   Clear
1:35 AM 57.2 °F 53.6 °F 88% 30.04 in 10.0 mi Calm Calm - N/A   Clear
1:55 AM 55.4 °F 53.6 °F 94% 30.04 in 7.0 mi Calm Calm - N/A   Clear
2:15 AM 59.0 °F 53.6 °F 82% 30.04 in 10.0 mi Calm Calm - N/A   Clear
2:35 AM 59.0 °F 53.6 °F 82% 30.04 in 10.0 mi Calm Calm - N/A   Clear
2:55 AM 55.4 °F 53.6 °F 94% 30.03 in 10.0 mi Calm Calm - N/A   Scattered Clouds
3:15 AM 59.0 °F 53.6 °F 82% 30.03 in 10.0 mi Calm Calm - N/A   Overcast
3:35 AM 59.0 °F 53.6 °F 82% 30.04 in 10.0 mi Calm Calm - N/A   Overcast
3:55 AM 59.0 °F 53.6 °F 82% 30.04 in 10.0 mi Calm Calm - N/A   Overcast
4:15 AM 59.0 °F 53.6 °F 82% 30.05 in 10.0 mi Calm Calm - N/A   Overcast
4:35 AM 59.0 °F 55.4 °F 88% 30.05 in 10.0 mi Calm Calm - N/A   Overcast
4:55 AM 59.0 °F 55.4 °F 88% 30.05 in 10.0 mi Calm Calm - N/A   Overcast
5:15 AM 59.0 °F 55.4 °F 88% 30.05 in 10.0 mi Calm Calm - N/A   Overcast
5:35 AM 59.0 °F 55.4 °F 88% 30.05 in 10.0 mi Calm Calm - N/A   Overcast
5:55 AM 59.0 °F 55.4 °F 88% 30.05 in 10.0 mi Calm Calm - N/A   Overcast
6:15 AM 60.8 °F 55.4 °F 82% 30.06 in 10.0 mi Calm Calm - N/A   Overcast
6:35 AM 60.8 °F 55.4 °F 82% 30.06 in 10.0 mi Calm Calm - N/A   Overcast
6:55 AM 60.8 °F 55.4 °F 82% 30.07 in 10.0 mi Calm Calm - N/A   Overcast
7:15 AM 60.8 °F 55.4 °F 82% 30.08 in 10.0 mi Calm Calm - N/A   Overcast
7:35 AM 60.8 °F 55.4 °F 82% 30.08 in 10.0 mi Calm Calm - N/A   Overcast
7:55 AM 62.6 °F 55.4 °F 77% 30.08 in 10.0 mi NNE 3.5 mph - N/A   Overcast
8:15 AM 62.6 °F 53.6 °F 72% 30.08 in 10.0 mi Calm Calm - N/A   Overcast
8:35 AM 62.6 °F 53.6 °F 72% 30.08 in 10.0 mi Calm Calm - N/A   Overcast
8:55 AM 64.4 °F 53.6 °F 68% 30.09 in 10.0 mi Calm Calm - N/A   Overcast
9:15 AM 64.4 °F 53.6 °F 68% 30.09 in 10.0 mi Calm Calm - N/A   Overcast
9:35 AM 66.2 °F 53.6 °F 64% 30.10 in 10.0 mi Calm Calm - N/A   Mostly Cloudy
9:55 AM 66.2 °F 53.6 °F 64% 30.09 in 10.0 mi Calm Calm - N/A   Scattered Clouds
10:15 AM 68.0 °F 53.6 °F 60% 30.10 in 10.0 mi Calm Calm - N/A   Clear
10:35 AM 68.0 °F 53.6 °F 60% 30.09 in 10.0 mi Calm Calm - N/A   Mostly Cloudy
10:55 AM 69.8 °F 53.6 °F 56% 30.10 in 10.0 mi Calm Calm - N/A   Scattered Clouds
11:15 AM 69.8 °F 53.6 °F 56% 30.09 in 10.0 mi SSW 5.8 mph - N/A   Clear
11:35 AM 69.8 °F 53.6 °F 56% 30.08 in 10.0 mi Calm Calm - N/A   Clear
11:55 AM 69.8 °F 53.6 °F 56% 30.08 in 10.0 mi South 4.6 mph - N/A   Scattered Clouds
12:15 PM 71.6 °F 53.6 °F 53% 30.08 in 10.0 mi SSW 4.6 mph - N/A   Scattered Clouds
12:35 PM 71.6 °F 53.6 °F 53% 30.07 in 10.0 mi SE 3.5 mph - N/A   Scattered Clouds
12:55 PM 73.4 °F 53.6 °F 50% 30.05 in 10.0 mi Calm Calm - N/A   Mostly Cloudy
1:15 PM 73.4 °F 53.6 °F 50% 30.04 in 10.0 mi SSE 5.8 mph - N/A   Scattered Clouds
1:35 PM 75.2 °F 51.8 °F 44% 30.03 in 10.0 mi SW 5.8 mph - N/A   Mostly Cloudy
1:55 PM 73.4 °F 53.6 °F 50% 30.02 in 10.0 mi Calm Calm - N/A   Mostly Cloudy
2:15 PM 73.4 °F 53.6 °F 50% 30.01 in 10.0 mi Calm Calm - N/A   Overcast
2:35 PM 73.4 °F 51.8 °F 47% 30.01 in 10.0 mi South 4.6 mph - N/A   Overcast
2:55 PM 75.2 °F 53.6 °F 47% 30.01 in 10.0 mi Calm Calm - N/A   Mostly Cloudy
3:15 PM 77.0 °F 53.6 °F 44% 30.01 in 10.0 mi SSE 3.5 mph - N/A   Mostly Cloudy
3:35 PM 75.2 °F 53.6 °F 47% 30.01 in 10.0 mi South 8.1 mph - N/A   Scattered Clouds
3:55 PM 73.4 °F 53.6 °F 50% 30.00 in 10.0 mi South 8.1 mph - N/A   Scattered Clouds
4:15 PM 73.4 °F 53.6 °F 50% 30.01 in 10.0 mi South 3.5 mph - N/A   Clear
4:35 PM 73.4 °F 53.6 °F 50% 30.01 in 10.0 mi Calm Calm - N/A   Scattered Clouds
4:55 PM 73.4 °F 51.8 °F 47% 30.01 in 10.0 mi Calm Calm - N/A   Scattered Clouds
5:15 PM 73.4 °F 53.6 °F 50% 30.01 in 10.0 mi Calm Calm - N/A   Clear
5:35 PM 73.4 °F 53.6 °F 50% 30.01 in 10.0 mi ESE 3.5 mph - N/A   Clear
5:55 PM 71.6 °F 53.6 °F 53% 30.01 in 10.0 mi Calm Calm - N/A   Clear
6:15 PM 68.0 °F 55.4 °F 64% 30.02 in 10.0 mi Calm Calm - N/A   Clear
6:35 PM 64.4 °F 57.2 °F 77% 30.02 in 10.0 mi Calm Calm - N/A   Clear
6:55 PM 64.4 °F 57.2 °F 77% 30.03 in 10.0 mi Calm Calm - N/A   Clear
7:15 PM 62.6 °F 57.2 °F 82% 30.04 in 10.0 mi Calm Calm - N/A   Clear
7:35 PM 62.6 °F 57.2 °F 82% 30.04 in 10.0 mi Calm Calm - N/A   Clear
7:55 PM 60.8 °F 57.2 °F 88% 30.05 in 10.0 mi Calm Calm - N/A   Clear
8:15 PM 60.8 °F 55.4 °F 82% 30.05 in 10.0 mi Calm Calm - N/A   Clear
8:35 PM 60.8 °F 55.4 °F 82% 30.06 in 10.0 mi Calm Calm - N/A   Clear
8:55 PM 59.0 °F 55.4 °F 88% 30.06 in 10.0 mi Calm Calm - N/A   Clear
9:15 PM 59.0 °F 55.4 °F 88% 30.07 in 10.0 mi Calm Calm - N/A   Clear
9:35 PM 59.0 °F 55.4 °F 88% 30.07 in 10.0 mi Calm Calm - N/A   Clear
9:55 PM 59.0 °F 55.4 °F 88% 30.07 in 10.0 mi Calm Calm - N/A   Clear
10:15 PM 59.0 °F 55.4 °F 88% 30.08 in 10.0 mi Calm Calm - N/A   Clear
10:35 PM 59.0 °F 55.4 °F 88% 30.07 in 10.0 mi Calm Calm - N/A   Clear
10:55 PM 57.2 °F 55.4 °F 94% 30.07 in 10.0 mi Calm Calm - N/A   Clear
11:15 PM 57.2 °F 53.6 °F 88% 30.07 in 10.0 mi Calm Calm - N/A   Clear
11:35 PM 55.4 °F 53.6 °F 94% 30.07 in 10.0 mi Calm Calm - N/A   Clear
11:55 PM 55.4 °F 53.6 °F 94% 30.06 in 10.0 mi Calm Calm - N/A   Clear